This demonstration page uses our WeatherBlox Daily Observations layout. Learn more.

Left ArrowRight Arrow

39.92423, -83.80882

Hourly Observations for February 17, 2016

Temp ( °F °C ) Dew Point ( °F °C ) Humidity (%) Winds ( mph kmh ) Pressure ( in mb ) Visibility ( mi km ) Precip ( " mm )
12:56 am 00:56 Cloudy 29 -1.6 27 -2.7 92 92 NW 3 6 29.98 1015 10 16 N/A
1:24 am 01:24 Cloudy 28 -2 27 -3 93 93 WNW 3 6 30.03 1017 10 16 N/A
1:37 am 01:37 Cloudy 28 -2 27 -3 93 93 WNW 5 7 30.03 1017 9 14 N/A
1:56 am 01:56 Cloudy 29 -1.6 26 -3.3 88 88 WNW 3 6 29.99 1016 9 14 N/A
2:11 am 02:11 Cloudy with Light Snow 28 -2 27 -3 93 93 NW 5 7 30.03 1017 3 5 N/A
2:56 am 02:56 Cloudy 29 -1.6 27 -2.7 92 92 WNW 5 7 30.02 1017 7 11 N/A
3:04 am 03:04 Cloudy 28 -2 27 -3 93 93 W 5 7 30.06 1018 7 11 N/A
3:56 am 03:56 Cloudy with Mist and Fog 29 -1.6 27 -2.7 92 92 W 5 7 30.04 1017 6 10 N/A
4:56 am 04:56 Cloudy with Mist and Fog 29 -1.6 27 -2.7 92 92 W 5 7 30.05 1018 6 10 N/A
5:03 am 05:03 Cloudy with Mist and Fog 28 -2 27 -3 93 93 W 3 6 30.09 1019 6 10 N/A
5:16 am 05:16 Cloudy with Mist and Fog 28 -2 28 -2 100 100 W 3 6 30.09 1019 6 10 N/A
5:56 am 05:56 Cloudy with Mist and Fog 29 -1.6 28 -2.2 96 96 W 5 7 30.07 1018 6 10 N/A
6:56 am 06:56 Cloudy with Mist and Fog 29 -1.6 28 -2.2 96 96 WNW 7 11 30.10 1019 5 8 N/A
7:26 am 07:26 Cloudy with Mist and Fog 28 -2 28 -2 100 100 WNW 6 9 30.15 1021 3 5 N/A
7:46 am 07:46 Cloudy with Mist and Fog 28 -2 28 -2 100 100 W 6 9 30.15 1021 3 5 N/A
7:56 am 07:56 Cloudy with Mist and Fog 29 -1.6 28 -2.2 96 96 W 7 11 30.14 1021 3 5 N/A
8:56 am 08:56 Cloudy with Mist and Fog 30 -1.1 29 -1.6 96 96 WNW 9 15 30.17 1022 3 4 N/A
9:56 am 09:56 Cloudy with Mist and Fog 31 -0.5 29 -1.6 92 92 WNW 10 17 30.20 1023 3 4 N/A
10:20 am 10:20 Cloudy with Mist and Fog 32 undefined 28 -2 87 87 W 9 15 30.24 1024 3 5 N/A
10:56 am 10:56 Mostly Cloudy with Mist and Fog 33 0.5 29 -1.6 86 86 WNW 8 13 30.22 1023 5 8 N/A
11:29 am 11:29 Mostly Cloudy 34 1 27 -3 75 75 WNW 8 13 30.27 1025 10 16 N/A
11:36 am 11:36 Partly Cloudy 34 1 28 -2 81 81 W 8 13 30.27 1025 10 16 N/A
11:56 am 11:56 Mostly Sunny 35 1.6 27 -2.7 73 73 W 8 13 30.23 1024 10 16 N/A
12:56 pm 12:56 Mostly Cloudy 37 2.7 26 -3.3 65 65 WNW 9 15 30.23 1024 10 16 N/A
1:56 pm 13:56 Cloudy 36 2.2 25 -3.8 65 65 W 8 13 30.23 1024 10 16 N/A
2:56 pm 14:56 Mostly Cloudy 36 2.2 25 -3.8 65 65 W 9 15 30.24 1024 10 16 N/A
3:56 pm 15:56 Mostly Cloudy 35 1.6 26 -3.3 70 70 WNW 9 15 30.26 1025 10 16 N/A
4:56 pm 16:56 Cloudy 35 1.6 26 -3.3 70 70 WNW 9 15 30.29 1026 10 16 N/A
5:56 pm 17:56 Cloudy 34 1.1 26 -3.3 73 73 W 5 7 30.31 1027 10 16 N/A
6:56 pm 18:56 Cloudy 33 0.5 27 -2.7 79 79 W 3 6 30.33 1027 10 16 N/A
7:56 pm 19:56 Cloudy 33 0.5 25 -3.8 73 73 W 6 9 30.35 1028 10 16 N/A
8:56 pm 20:56 Cloudy 33 0.5 25 -3.8 73 73 WSW 6 9 30.36 1028 10 16 N/A
9:56 pm 21:56 Cloudy 32 undefined 26 -3.3 79 79 W 3 6 30.36 1028 10 16 N/A
10:56 pm 22:56 Cloudy 32 undefined 25 -3.8 76 76 W 6 9 30.37 1029 10 16 N/A
11:56 pm 23:56 Cloudy 32 undefined 25 -3.8 76 76 W 5 7 30.38 1029 10 16 N/A

Powered by AerisWeather